Regional Weather Roundup
Issued by NWS Charleston, SC

Current Version | Previous Version | Text Only | Print | Product List | Glossary Off
Versions: 1 2 3 4 5 6 7 8 9 10 11 12 13 14 15 16 17 18 19 20 21 22 23 24 25 26 27 28 29 30 31 32 33 34 35 36 37 38 39 40 41 42 43 44 45 46 47 48 49 50
000 ASUS42 KCHS 031827 RWRCHS REGIONAL WEATHER ROUNDUP NATIONAL WEATHER SERVICE CHARLESTON SC 200 PM EDT FRI JUL 03 2015 NOTE: "FAIR" INDICATES FEW OR NO CLOUDS BELOW 12,000 FEET WITH NO SIGNIFICANT WEATHER AND/OR OBSTRUCTIONS TO VISIBILITY. NOT ALL STATIONS ARE QUALITY CONTROLLED BY THE NATIONAL WEATHER SERVICE. USE DATA WITH CAUTION...ESPECIALLY DEWPOINT OBSERVATIONS. SCZ027-030-031-034>040-042>050-031900- ...SOUTHEAST SOUTH CAROLINA... CITY SKY/WX TMP DP RH WIND PRES REMARKS N CHARLESTON PTSUNNY 87 73 62 SW9 29.99F HX 94 6HR MIN TEMP: 73; 6HR MAX TEMP: 88; 6HR PCP: TRACE; WATERFRONT PAR N/A 85 75 71 SW7 29.98F HX 93 MOUNT PLEASANT FAIR 88 73 62 SW10G23 29.99S HX 96 JOHNS ISLAND MOCLDY 88 77 70 S13G21 29.99F HX 100 PINOPOLIS NOT AVBL MONCKS CORNER TSTM 84 73 70 NW16G33 29.99R HX 91 SUMMERVILLE MOCLDY 88 73 62 W22G33 30.00S HX 96 BEAUFORT MCAS MOSUNNY 91 71 51 W18G25 30.00F HX 97 6HR MIN TEMP: 73; 6HR MAX TEMP: 91; BEAUFORT ARPT FAIR 91 73 55 SW14G21 30.00F HX 100 HILTON HEAD IS MOSUNNY 91 73 55 SW13G21 30.02F HX 100 WALTERBORO TSTM 72 68 88 NW17G46 30.04R VSB 3/4 ALLENDALE FAIR 73 70 88 CALM 30.01F ...SOUTHERN MIDLANDS AND PEE DEE... CITY SKY/WX TMP DP RH WIND PRES REMARKS GEORGETOWN NOT AVBL KINGSTREE NOT AVBL ORANGEBURG CLOUDY 77 71 82 W15G21 29.99S 6HR MIN TEMP: 72; 6HR MAX TEMP: 84; 6HR PCP: 0.03; BARNWELL FAIR 73 72 94 W9 30.01F AIKEN NOT AVBL MANNING MOCLDY 86 68 54 W14G21 29.96F COLUMBIA CLOUDY 81 68 64 W20 29.97R 6HR MIN TEMP: 75; 6HR MAX TEMP: 82; 6HR PCP: TRACE; SUMTER CLOUDY 83 70 64 SW13 29.93F 6HR MIN TEMP: 74; 6HR MAX TEMP: 85; 6HR PCP: TRACE; FLORENCE PTSUNNY 83 75 77 SW13 29.94F HX 90 6HR MIN TEMP: 72; 6HR MAX TEMP: 83; MYRTLE BEACH MOSUNNY 86 72 62 SW10 29.99F HX 92 N MYRTLE BEACH PTSUNNY 84 73 69 S15 29.97F HX 90 6HR MIN TEMP: 74; 6HR MAX TEMP: 85; $$ GAZ063-065-086>088-099>101-113>116-118-119-134>141-150-031900- ...SOUTHEAST GEORGIA... CITY SKY/WX TMP DP RH WIND PRES REMARKS SAVANNAH ARPT PTSUNNY 92 69 47 W17G24 30.01F HX 97 6HR MIN TEMP: 73; 6HR MAX TEMP: 92; HUNTER AAF PTSUNNY 93 74 53 W13G22 30.00F HX 102 6HR MIN TEMP: 76; 6HR MAX TEMP: 93; FORT STEWART PTSUNNY 91 70 49 W12G18 30.01F HX 97 6HR MIN TEMP: 74; 6HR MAX TEMP: 91; STATESBORO NOT AVBL SYLVANIA LGT RAIN 74 72 93 NW13G25 30.03R CLAXTON FAIR 90 72 55 W9 30.02F HX 96 ...CSRA...CENTRAL AND FAR SOUTHEAST GEORGIA... CITY SKY/WX TMP DP RH WIND PRES REMARKS THOMSON CLOUDY 74 73 97 SW7 30.06F AUGUSTA-BUSH LGT RAIN 72 70 93 SW7 30.01F 6HR MIN TEMP: 71; 6HR MAX TEMP: 77; 6HR PCP: 0.44; AUGUSTA-DANIEL LGT RAIN 71 68 90 VRB3 30.02F SWAINSBORO FAIR 88 72 58 N8 30.03F HX 94 VIDALIA MOSUNNY 90 68 48 W12G21 30.03F HX 93 EASTMAN FAIR 91 67 46 W13G20 30.06F HX 94 HAZLEHURST FAIR 91 69 48 SW13G20 30.03F HX 96 ALMA SUNNY 90 70 51 W13 30.05F HX 95 6HR MIN TEMP: 73; 6HR MAX TEMP: 90; WAYCROSS MOSUNNY 93 74 54 NW10 30.05F HX 103 JESUP FAIR 95 72 46 W8G18 30.04F HX 103 BAXLEY FAIR 91 72 52 W10G17 30.04F HX 98 BRUNSWICK SUNNY 91 70 49 W9 30.05F HX 97 SAINT SIMONS SUNNY 90 69 50 W10 30.05F HX 94 6HR MIN TEMP: 75; 6HR MAX TEMP: 91; $$ SCZ027-028-034-036>038-045-046-048>050-GAZ119-141-031900- ...LAKE AND SUPPLEMENTAL COASTAL OBSERVATIONS... STATION/POSITION TIME TEMP WIND PRES WAVE SWELL AIR SEA DIR/SP/G HT/PER HT/PER/DIR (UTC) (F) (DEG/KT/KT) (MB) (FT/S) (FT/S/D) UPR LAKE MARION NOT AVBL WINYAH BAY 1745 85 210/ 8 1014.0F LAKE MURRAY 1700 75 220/ 6/ 11 1014.6S ACE BASIN NERRS 1700 86 140/ 2 1016.0 FORT PULASKI 1800 88 84 270/ 15/ 18 1016.9F SAPELO ISLAND 1800 89 240/ 10 1017.0F $$ ANZ835-935-AMZ111-154-330-350-352-354-370-450-454-472-031900- ...C-MAN AND BUOY OBSERVATIONS... STATION/POSITION TIME TEMP WIND PRES WAVE SWELL AIR SEA DIR/SP/G HT/PER HT/PER/DIR (UTC) (F) (DEG/KT/KT) (MB) (FT/S) (FT/S/D) BUOY 41004 1750 81 82 230/ 17/ 21 1016.0F 5/ 8 3/ 8 BUOY 41008 1750 79 79 200/ 12/ 14 1017.8F 2/ 8 2/130/ 8 FOLLY BEACH CMAN 1800 82 210/ 17/ 19 1016.0F CAPERS NEARSHORE 1708 81 230/ 16/ 19 1016.5F FRIPP NEARSHORE 1700 84 230/ 14/ 17 1016.6F STATION/POSITION TIME TEMP WIND PRES WAVE SWELL AIR SEA DIR/SP/G HT/PER HT/PER/DIR (UTC) (F) (DEG/KT/KT) (MB) (FT/S) (FT/S/D) 5E ST. MARYS GA 1721 80 N/A 2/ 8 FRYING PAN BUOY 1750 80 79 220/ 17/ 21 1016.0F 6/ 7 BUOY 41025 1750 77 82 260/ 10/ 12 1015.2F 4/ 8 3/160/ 8 CAPE LOOKOUT NC 1800 82 220/ 9/ 13 1014.7F BUOY 41002 1750 79 80 240/ 12/ 14 1019.4F 7/ 7 5/250/ 7 BUOY 41010 1720 83 85 110/ 4/ 4 1020.4F ST AUGUSTINE FL 1800 79 75 130/ 10/ 11 1019.5F $$

USA.gov is the U.S. government's official web portal to all federal, state and local government web resources and services.